[[{"header":{"parameterUnit":"m.s-1","parameterCategory":1,"la1":30.2991,"la2":30.254,"lo1":-89.0895,"lo2":-89.0444,"dy":0.0017,"dx":0.0017,"nx":28,"ny":28,"refTime":"2025-01-05T09:00:00:Z","depth":0,"parameterNumber":2,"parameterNumberName":"U-component_of_WINDS"},"data":[0,0,0,0,0,0,0,0,0,0,0,0,0,0,0,0,0,0,0,0,0,0,0,0,0,0,0,0,0,0,0,0,0,0,0,0,0,0,0,0,0,0,0,0,0,0,0,0,0,0,0,0,0,0,0,0,0,0,-4.3843,-4.3844,0,-4.392,-4.3921,-4.3922,-4.3913,-4.3912,-4.3911,-4.391,-4.3987,-4.399,-4.3994,0,0,0,0,0,0,0,0,0,0,0,0,0,-4.3688,-4.3691,-4.3843,-4.3844,-4.3845,-4.392,-4.3921,-4.3922,-4.3914,-4.3912,-4.3911,-4.3909,-4.3986,-4.399,-4.3994,0,0,0,0,0,0,0,0,0,0,0,0,0,-4.3759,-4.3692,-4.3843,-4.385,-4.3851,-4.392,-4.3921,-4.3923,-4.3914,-4.3912,-4.391,-4.3908,-4.3985,-4.399,-4.3994,-4.4061,0,0,-4.4009,-4.4011,0,0,0,0,0,0,0,0,-4.3755,-4.3765,-4.3848,-4.3849,-4.3851,-4.3905,-4.3895,-4.3969,-4.3914,-4.389,-4.391,-4.3908,-4.3961,-4.3968,-4.3986,-4.4064,-4.4068,-4.4009,-4.4012,-4.4014,-4.4016,0,0,0,0,0,0,0,-4.375,-4.3762,-4.3873,-4.3849,-4.3851,-4.3849,-4.3857,-4.3909,-4.3935,-4.3892,-4.3891,-4.3901,-4.3962,-4.3982,-4.3988,-4.4069,-4.4009,-4.4014,-4.4017,-4.4018,-4.4208,-4.421,0,0,0,0,0,0,-4.3744,-4.3758,-4.3871,-4.3876,-4.3798,-4.3853,-4.3862,-4.389,-4.3934,-4.3939,-4.3902,-4.39,-4.3975,-4.3983,-4.3991,-4.4072,-4.4014,-4.4019,-4.4022,-4.4205,-4.4208,-4.421,0,0,0,0,0,0,-4.3741,-4.3754,-4.3868,-4.3817,-4.3831,-4.3858,-4.3889,-4.3892,-4.3912,-4.3942,-4.3947,-4.3918,-4.3973,-4.3984,-4.4044,-4.4075,-4.4021,-4.4025,-4.4203,-4.4206,-4.4209,-4.4235,0,0,0,0,0,0,-4.3736,-4.3753,-4.3778,-4.3817,-4.3834,-4.3919,-4.3891,-4.3895,-4.3921,-4.3918,-4.3958,-4.3963,-4.3973,-4.4037,-4.4049,-4.408,-4.4029,-4.42,-4.4204,-4.4208,-4.4231,-4.4238,-4.4245,0,0,0,0,0,-4.3731,-4.3781,-4.3779,-4.3793,-4.3866,-4.3921,-4.3931,-4.3941,-4.3923,-4.3949,-4.3969,-4.3962,-4.407,-4.4043,-4.4056,-4.409,-4.4198,-4.4203,-4.4208,-4.4228,-4.4237,-4.4244,0,0,0,0,0,0,-4.3743,-4.3786,-4.3785,-4.385,-4.3882,-4.392,-4.3952,-4.395,-4.3988,-4.3984,-4.3996,-4.4005,-4.4066,-4.4084,-4.4053,-4.4158,-4.4132,-4.4139,-4.4143,-4.4151,-4.4158,-4.4151,-4.4033,0,0,0,0,0,-4.3754,-4.3796,-4.3831,-4.3885,-4.3902,-4.3924,-4.3949,-4.3955,-4.3989,-4.4002,-4.4026,-4.4059,-4.4101,-4.4127,-4.4167,-4.4235,-4.4244,-4.4265,-4.4272,-4.4277,-4.4283,-4.4321,-4.4331,-4.4226,-4.4226,-4.4226,0,0,-4.3776,-4.3805,-4.383,-4.3888,-4.3914,-4.3957,-4.3936,-4.3981,-4.4013,-4.4009,-4.4066,-4.4086,-4.4124,-4.4188,-4.4218,-4.4205,-4.4314,-4.4283,-4.4287,-4.429,-4.4327,-4.4337,-4.4345,-4.4229,-4.4229,-4.4228,0,0,-4.3837,-4.3863,-4.3911,-4.3938,-4.3978,-4.3994,-4.4006,-4.4045,-4.4057,-4.4116,-4.4114,-4.4153,-4.4224,-4.4251,-4.4275,-4.4351,-4.4345,-4.4364,-4.4397,-4.4434,-4.4442,-4.445,-4.4476,-4.4486,-4.437,-4.437,-4.437,0,-4.3858,-4.3922,-4.3936,-4.3983,-4.4009,-4.4009,-4.4058,-4.4084,-4.4135,-4.4153,-4.4139,-4.423,-4.4255,-4.4327,-4.4345,-4.4365,-4.4378,-4.4357,-4.444,-4.4448,-4.4455,-4.448,-4.449,-4.4372,-4.4371,-4.4371,-4.4371,0,-4.3947,-4.3992,-4.4026,-4.4077,-4.4107,-4.4155,-4.4176,-4.4206,-4.421,-4.4227,-4.4288,-4.432,-4.4366,-4.4385,-4.4389,-4.4457,-4.4448,-4.4438,-4.4411,-4.4466,-4.449,-4.45,-4.4374,-4.4374,-4.4373,-4.4373,0,0,-4.4014,-4.4074,-4.4086,-4.411,-4.4156,-4.4191,-4.424,-4.4287,-4.4312,-4.4348,-4.4389,-4.4452,-4.4443,-4.4469,-4.4477,-4.451,-4.4569,-4.4496,-4.4497,-4.4507,-4.4646,-4.4652,-4.4663,-4.4567,-4.4569,-4.4571,-4.4642,0,-4.4078,-4.4165,-4.418,-4.4255,-4.4297,-4.43,-4.4343,-4.4376,-4.4395,-4.4434,-4.4454,-4.4498,-4.4483,-4.4499,-4.4532,-4.4554,-4.4596,-4.455,-4.4604,-4.4606,-4.4592,-4.4676,-4.4682,-4.4748,-4.4652,-4.4654,-4.4655,0,-4.4164,-4.4204,-4.4284,-4.4326,-4.4344,-4.4382,-4.4428,-4.4465,-4.4504,-4.4515,-4.4547,-4.4552,-4.4603,-4.4578,-4.4649,-4.4617,-4.4641,-4.4656,-4.4659,-4.4662,-4.4632,-4.468,-4.4769,-4.4778,-4.467,-4.4669,-4.4667,0,-4.4204,-4.4278,-4.4335,-4.4356,-4.4407,-4.4433,-4.4456,-4.4493,-4.4521,-4.4561,-4.458,-4.4625,-4.465,-4.4685,-4.4703,-4.4683,-4.4774,-4.4749,-4.4784,-4.4783,-4.48,-4.4798,-4.4892,-4.4819,-4.4819,-4.4819,-4.4819,0,-4.4273,-4.4321,-4.4354,-4.4389,-4.4444,-4.4462,-4.4516,-4.4538,-4.4572,-4.4612,-4.4618,-4.4655,-4.4678,-4.4719,-4.4734,-4.479,-4.4802,-4.4812,-4.4815,-4.481,-4.4809,-4.4824,-4.4819,-4.4822,-4.4821,-4.482,-4.482,0,-4.4325,-4.4349,-4.4412,-4.4456,-4.4469,-4.4507,-4.4545,-4.458,-4.46,-4.4651,-4.4664,-4.4695,-4.4744,-4.4766,-4.4826,-4.4836,-4.4901,-4.4901,-4.4887,-4.4888,-4.4921,-4.4917,-4.5027,-4.5042,-4.496,-4.4961,-4.4962,0,-4.4366,-4.4403,-4.4453,-4.448,-4.4504,-4.4548,-4.4577,-4.4598,-4.4628,-4.4677,-4.4706,-4.4756,-4.4796,-4.4874,-4.4902,-4.4949,-4.4949,-4.4985,-4.4956,-4.4951,-4.4948,-4.4945,-4.4949,-4.4989,-4.499,-4.499,-4.4991,0,-4.4436,-4.4447,-4.4489,-4.4536,-4.4571,-4.4609,-4.4646,-4.4669,-4.4696,-4.473,-4.478,-4.4812,-4.4875,-4.4923,-4.4973,-4.4996,-4.4998,-4.5001,-4.5011,-4.5005,-4.4995,-4.4999,-4.4899,-4.4997,-4.4996,-4.4996,-4.4995,-4.4995,-4.4483,-4.4517,-4.4557,-4.4605,-4.4636,-4.4671,-4.4706,-4.4732,-4.4774,-4.4827,-4.4838,-4.4891,-4.4932,-4.4998,-4.5024,-4.5066,-4.5058,-4.5073,-4.5076,-4.5079,-4.5081,-4.499,-4.5076,-4.5076,-4.5075,-4.5075,-4.5075,0,-4.4552,-4.458,-4.4623,-4.4676,-4.4713,-4.4714,-4.4757,-4.4788,-4.4835,-4.4873,-4.4913,-4.4972,-4.5021,-4.5054,-4.5104,-4.5131,-4.5134,-4.5144,-4.514,-4.5146,-4.5086,-4.5071,-4.5141,-4.5141,-4.5141,-4.5141,-4.5141,-4.5141,-4.4593,-4.465,-4.4667,-4.474,-4.4767,-4.482,-4.4844,-4.4878,-4.4908,-4.4974,-4.5014,-4.5036,-4.5073,-4.5126,-4.517,-4.5179,-4.5196,-4.5206,-4.5214,-4.5157,-4.515,-4.5143,-4.513,-4.521,-4.521,-4.5271,-4.5271,-4.5272]},{"header":{"parameterUnit":"m.s-1","parameterCategory":1,"la1":30.2991,"la2":30.254,"lo1":-89.0895,"lo2":-89.0444,"dy":0.0017,"dx":0.0017,"nx":28,"ny":28,"refTime":"2025-01-05T09:00:00:Z","depth":0,"parameterNumber":3,"parameterNumberName":"V-component_of_WINDS"},"data":[0,0,0,0,0,0,0,0,0,0,0,0,0,0,0,0,0,0,0,0,0,0,0,0,0,0,0,0,0,0,0,0,0,0,0,0,0,0,0,0,0,0,0,0,0,0,0,0,0,0,0,0,0,0,0,0,0,0,5.3597,5.3599,0,5.3791,5.3793,5.3795,5.3863,5.3862,5.3861,5.386,5.406,5.4065,5.4071,0,0,0,0,0,0,0,0,0,0,0,0,0,5.3286,5.3292,5.3597,5.3599,5.3601,5.3791,5.3793,5.3796,5.3863,5.3862,5.3861,5.386,5.4058,5.4065,5.4072,0,0,0,0,0,0,0,0,0,0,0,0,0,5.3445,5.3293,5.3596,5.3658,5.3665,5.379,5.3793,5.3797,5.3863,5.3862,5.3861,5.386,5.4055,5.4064,5.4073,5.4151,0,0,5.41,5.4104,0,0,0,0,0,0,0,0,5.3436,5.3456,5.3646,5.3654,5.3662,5.3801,5.3757,5.3916,5.3863,5.3788,5.386,5.3859,5.3975,5.399,5.4029,5.416,5.4169,5.4101,5.4107,5.411,5.4113,0,0,0,0,0,0,0,5.3425,5.3448,5.3674,5.3649,5.3659,5.3677,5.3698,5.3787,5.3885,5.3794,5.38,5.3822,5.3979,5.402,5.4034,5.4172,5.4101,5.4109,5.4114,5.4118,5.4382,5.4383,0,0,0,0,0,0,5.3403,5.3439,5.3667,5.3679,5.3544,5.3683,5.3707,5.3758,5.3884,5.3903,5.3823,5.3824,5.4005,5.4024,5.4041,5.4145,5.411,5.4119,5.4124,5.438,5.4382,5.4384,0,0,0,0,0,0,5.3396,5.3423,5.366,5.3561,5.3592,5.369,5.3746,5.3762,5.3804,5.3906,5.3924,5.3847,5.4005,5.4029,5.4124,5.4152,5.4123,5.4131,5.4378,5.4381,5.4383,5.4349,0,0,0,0,0,0,5.3387,5.342,5.345,5.3561,5.3597,5.3738,5.3748,5.3767,5.3819,5.3823,5.3933,5.395,5.4006,5.4111,5.4133,5.4164,5.4138,5.4376,5.4379,5.4382,5.4348,5.435,5.4351,0,0,0,0,0,5.3376,5.3431,5.3451,5.3478,5.3636,5.3739,5.376,5.3823,5.3821,5.3853,5.3919,5.3947,5.4145,5.412,5.4146,5.418,5.4375,5.4379,5.4382,5.4347,5.4349,5.4351,0,0,0,0,0,0,5.332,5.3447,5.347,5.3563,5.364,5.375,5.3792,5.3823,5.3902,5.3903,5.3978,5.4002,5.4093,5.4146,5.4115,5.4265,5.4262,5.4271,5.4226,5.4229,5.4231,5.4217,5.4146,0,0,0,0,0,5.3319,5.3392,5.3499,5.357,5.3608,5.3693,5.3741,5.3783,5.3866,5.3899,5.3971,5.4051,5.4132,5.4183,5.4263,5.4356,5.4383,5.4393,5.4394,5.4395,5.4402,5.4459,5.4466,5.4396,5.4396,5.4396,0,0,5.3317,5.3395,5.3436,5.3561,5.3626,5.3701,5.372,5.3798,5.3855,5.391,5.4006,5.4062,5.4157,5.4252,5.4298,5.4299,5.4428,5.44,5.44,5.4407,5.4463,5.447,5.4476,5.4398,5.4398,5.4397,0,0,5.3352,5.3417,5.3486,5.3551,5.3649,5.3706,5.3723,5.383,5.387,5.3967,5.4011,5.408,5.4217,5.4284,5.4335,5.4399,5.4429,5.4423,5.4432,5.4487,5.4492,5.4497,5.4523,5.4531,5.443,5.443,5.443,0,5.3336,5.345,5.3517,5.3594,5.3649,5.3704,5.3776,5.3836,5.3954,5.3992,5.3992,5.4168,5.4234,5.4348,5.4364,5.4403,5.4426,5.4411,5.4486,5.4492,5.4498,5.4523,5.4532,5.4428,5.4429,5.4429,5.4429,0,5.3429,5.3507,5.3551,5.3666,5.3727,5.38,5.3879,5.3932,5.397,5.4028,5.4128,5.4211,5.431,5.434,5.4377,5.446,5.4458,5.4471,5.447,5.4502,5.4527,5.4537,5.4427,5.4427,5.4428,5.4428,0,0,5.3432,5.3585,5.3601,5.3655,5.3769,5.3832,5.3909,5.4007,5.4053,5.4134,5.4202,5.4318,5.4332,5.4391,5.4436,5.4484,5.4533,5.4492,5.4495,5.4498,5.4634,5.4624,5.4634,5.4554,5.4556,5.4557,5.4626,0,5.3483,5.3624,5.3688,5.38,5.3875,5.393,5.3999,5.4077,5.4133,5.4207,5.4269,5.4352,5.4362,5.4399,5.4448,5.4516,5.4562,5.4512,5.462,5.4623,5.4596,5.4647,5.4637,5.4698,5.4636,5.4638,5.4639,0,5.3561,5.3644,5.3764,5.3873,5.3907,5.3966,5.4063,5.4132,5.4223,5.4261,5.4328,5.4373,5.4459,5.4452,5.4572,5.4537,5.4585,5.4626,5.463,5.4643,5.4633,5.4663,5.4719,5.4728,5.4655,5.4654,5.4653,0,5.3555,5.3696,5.3788,5.3832,5.396,5.4002,5.4057,5.4147,5.4203,5.4288,5.4326,5.4418,5.447,5.4542,5.4611,5.4599,5.4726,5.4724,5.4762,5.4761,5.4787,5.4784,5.4852,5.4815,5.4815,5.4814,5.4814,0,5.3606,5.3678,5.3787,5.3843,5.3926,5.4,5.4081,5.414,5.4221,5.4291,5.4344,5.4409,5.4495,5.4572,5.4627,5.472,5.4742,5.4777,5.4791,5.4773,5.4769,5.4806,5.4805,5.4817,5.4816,5.4816,5.4816,0,5.3613,5.3689,5.3792,5.3906,5.3936,5.3993,5.4091,5.4149,5.4209,5.4298,5.4323,5.4417,5.4511,5.4587,5.4708,5.4745,5.4844,5.4858,5.4813,5.4821,5.4855,5.4852,5.495,5.4968,5.4917,5.4917,5.4917,0,5.3642,5.3699,5.382,5.3871,5.3926,5.4007,5.4065,5.414,5.4199,5.4309,5.4354,5.4451,5.4533,5.468,5.476,5.4855,5.4874,5.4902,5.4888,5.487,5.4877,5.4874,5.4881,5.4903,5.4903,5.4903,5.4904,0,5.3685,5.3721,5.3802,5.3898,5.3966,5.4044,5.4125,5.4164,5.4255,5.4318,5.4414,5.4478,5.4604,5.4701,5.4804,5.4863,5.49,5.4908,5.4922,5.4905,5.4877,5.4895,5.4819,5.4905,5.4905,5.4905,5.4905,5.4905,5.3706,5.376,5.3855,5.3945,5.4014,5.4088,5.4149,5.4218,5.4299,5.4408,5.4448,5.4548,5.4641,5.4784,5.4844,5.4924,5.4928,5.4947,5.4953,5.4957,5.4956,5.4863,5.4942,5.4943,5.4943,5.4943,5.4943,0,5.3754,5.3818,5.39,5.4012,5.4084,5.4112,5.4203,5.4262,5.4349,5.4433,5.4513,5.4626,5.4721,5.4809,5.4909,5.4957,5.4976,5.4981,5.4979,5.4992,5.4945,5.4924,5.4963,5.4963,5.4963,5.4963,5.4963,5.4963,5.3788,5.3883,5.393,5.4061,5.4125,5.4223,5.4273,5.4343,5.4411,5.4535,5.4614,5.4672,5.4759,5.4866,5.4956,5.498,5.5015,5.5015,5.5043,5.4998,5.4995,5.4992,5.4973,5.5022,5.5022,5.5084,5.5085,5.5085]}]]